Location: Font L�on
(45.9333°N, 1.5333°E)
Time: 22:54:30
(UTC+00:00)

Daily predictions for brighter satellites

Satellite Brightness Start Highest point End
(mag) Time Altitude Azimuth Time Altitude Azimuth Time Altitude Azimuth
FengYun 1-2 T 4.4 16:32:34 10° SE 16:37:57 51° ENE 16:43:18 10° N
Cosmos 2369 4.1 16:33:55 10° NNW 16:39:21 42° NE 16:44:45 10° SE
SJ 16-02 3.7 16:36:07 10° NW 16:39:54 29° W 16:43:40 10° SSW
Cosmos 1812 4.4 16:43:14 10° ESE 16:45:29 15° E 16:47:44 10° NE
Meteor PRIRODA 3.5 16:42:00 10° SSE 16:45:36 71° ENE 16:49:14 10° N
NOAA 12 4.1 16:41:07 10° SSE 16:46:24 71° ENE 16:51:43 10° N
ERBS 4.4 16:44:30 10° WNW 16:46:37 16° NNW 16:48:44 10° NNE
SL-16 R/B 3.8 16:43:54 10° N 16:47:08 15° NE 16:50:21 10° ENE
CORIOLIS 4.4 16:44:51 10° SE 16:49:59 47° ENE 16:55:10 10° N
Cosmos 2082 Rocket 3.0 16:46:00 10° SSE 16:51:01 33° ESE 16:56:03 10° NE
Meteor 1-25 Rocket 4.2 16:50:11 10° N 16:55:46 69° ENE 17:01:21 10° SSE
Cosmos 468 Rocket 4.0 16:51:04 10° SSW 16:56:13 86° ESE 17:01:27 10° NNE
Cosmos 1500 Rocket 3.6 16:52:38 10° N 16:57:05 87° ENE 17:01:29 10° S
USA 306 4.2 16:56:39 10° WNW 17:00:17 27° N 17:03:34 12° ENE
Cosmos 1898 Rocket 3.5 16:57:11 10° NNW 17:02:28 88° WSW 17:07:39 10° SSE
CZ-4B DEB 4.4 16:57:31 10° SE 17:02:50 52° ENE 17:08:09 10° N
Cosmos 2278 4.2 16:57:41 10° NNW 17:02:59 37° NE 17:08:14 10° ESE
USA 276 4.4 17:00:25 10° W 17:03:05 26° SW 17:05:45 10° SSE
Cosmos 1818 4.5 16:58:53 10° NNW 17:03:37 28° NE 17:08:18 10° E
Cosmos 2221 3.8 16:59:37 10° SSW 17:03:41 43° WNW 17:07:50 10° N
Cosmos 1602 3.7 17:00:21 10° N 17:04:10 60° ENE 17:08:00 10° SSE
Sich 1 3.2 17:00:09 10° N 17:04:19 47° ENE 17:08:29 10° SSE
Cosmos 1939 Rocket 2.8 17:00:22 10° SSE 17:04:27 71° ENE 17:08:32 10° N
Nadezhda 4 Rocket 4.4 16:59:55 10° NNW 17:06:13 71° W 17:12:29 10° S
ARGOS 4.1 17:02:01 10° ESE 17:06:24 26° ENE 17:10:47 10° N
Cosmos 1805 Rocket 3.5 17:04:41 10° N 17:09:01 69° E 17:13:20 10° SSE
Cosmos 1833 Rocket 2.8 17:05:06 10° SSW 17:10:43 84° WNW 17:16:24 10° NNE
COSMOS 2406 3.2 17:08:53 10° SSW 17:14:38 82° ESE 17:20:24 10° NNE
NOSS 2-2 (C) 4.3 17:11:17 10° NW 17:16:25 70° NE 17:23:39 10° SE
deb Chang Zheng 4 4.4 17:13:56 10° SE 17:17:37 29° ENE 17:21:21 10° N
USA 307 4.1 17:15:55 10° NW 17:19:36 27° N 17:21:59 17° NE
CZ-2C R/B 3.9 17:16:14 10° S 17:20:59 50° W 17:25:38 10° NNW
Cosmos 1782 2.7 17:18:31 10° S 17:22:28 68° E 17:26:27 10° NNE
USA 267 3.3 17:16:34 12° NE 17:22:40 80° NNW 17:29:12 10° WSW
Cosmos 1092 Rocket 4.1 17:16:55 10° N 17:23:18 87° W 17:29:38 10° S
Cosmos 1428 Rocket 4.4 17:17:52 10° N 17:24:03 84° E 17:30:13 10° S
CZ-2C R/B 3.1 17:22:34 10° NNE 17:27:19 35° E 17:32:01 10° SSE
Cosmos 1763 Rocket 4.3 17:22:49 10° SW 17:27:43 50° WNW 17:32:43 10° NNE
CZ-2D R/B 3.2 17:25:08 10° SSE 17:28:54 61° ENE 17:32:41 10° N
Cosmos 1500 3.0 17:25:09 10° N 17:28:54 76° E 17:32:37 10° SSE
CZ-4C R/B 3.0 17:23:27 10° NW 17:30:33 65° NE 17:38:53 10° SE
H-2A R/B 2.0 17:27:04 10° SSE 17:32:09 63° ENE 17:37:08 10° N
Meteor 2-16 Rocket 4.5 17:26:08 10° N 17:32:10 56° ENE 17:38:09 10° SSE
CZ-4B R/B 3.3 17:28:25 10° SE 17:33:37 51° ENE 17:38:46 10° N
Cosmos 841 Rocket 3.4 17:29:51 10° SSW 17:35:01 87° ESE 17:40:12 10° NNE
PAYLOAD B 4.2 17:29:50 10° SSE 17:35:25 75° ENE 17:41:01 10° NNW
Cosmos 1937 Rocket 4.2 17:35:31 10° NNW 17:40:45 58° WSW 17:45:56 10° S
SMAP 3.9 17:37:14 10° S 17:41:47 54° W 17:46:22 10° NNW
USA 308 4.0 17:38:35 10° NW 17:42:19 29° N 17:43:39 24° NE
Lacrosse 5 rocket 1.9 17:40:06 10° NW 17:43:46 37° NNE 17:44:49 31° ENE
Cosmos 2142 Rocket 4.4 17:38:08 10° S 17:44:13 69° E 17:50:24 10° NNE
COSMO-SKYMED 1 2.8 17:41:39 18° NNE 17:44:40 46° E 17:48:50 10° S
Cosmos 921 Rocket 3.8 17:41:34 10° SSE 17:45:10 28° E 17:45:22 28° E
Cosmos 1125 Rocket 4.2 17:40:42 10° N 17:45:24 32° ENE 17:47:32 24° E
COSMOS 2455 2.9 17:41:22 10° SW 17:47:24 81° WNW 17:52:28 15° NNE
Cosmos 372 Rocket 4.2 17:43:27 10° NNW 17:48:42 77° WSW 17:53:56 10° SSE
Cosmos 2279 Rocket 3.9 17:43:28 10° S 17:49:37 71° E 17:55:49 10° NNE
ATLAS 2AS CENTAUR R/B 4.4 17:45:15 10° NW 17:50:32 20° N 17:54:01 14° NNE
Cosmos 1633 Rocket 2.9 17:47:04 10° N 17:51:26 69° E 17:55:48 10° SSE
ISS -3.5 17:48:07 10° WNW 17:51:31 69° SSW 17:53:03 29° SE
Cosmos 2360 Rocket 3.6 17:48:37 10° N 17:52:12 20° NE 17:52:12 20° NE
Cosmos 44 Rocket 3.4 17:49:00 10° NNW 17:53:49 51° NE 17:56:04 28° ESE
Cosmos 2266 Rocket 4.3 17:48:05 10° N 17:54:12 45° ENE 18:00:18 10° SSE
YAOGAN 1 4.4 17:56:50 16° NNE 17:56:50 16° NNE 17:57:59 10° N
USA 234 3.5 17:49:42 10° SE 17:56:14 73° SW 18:02:48 10° NW
SL-24 R/B - RUBIN 2 4.2 17:53:03 10° NW 17:57:27 56° WSW 18:01:40 10° SSE
Meteor 1-11 Rocket 4.1 17:52:40 10° N 17:57:57 39° ENE 18:03:17 10° SE
Cosmos 1666 2.5 17:54:27 10° N 17:58:11 88° W 18:01:53 10° S
Cosmos 1151 Rocket 3.0 17:56:14 10° S 18:00:33 87° W 18:04:41 12° N
CZ-4 R/B 4.3 18:02:27 10° SSE 18:06:33 72° ENE 18:10:42 10° N
USA 305 3.7 18:04:39 10° NW 18:08:34 34° NNE 18:08:40 34° NNE
SKYMED 3 4.4 18:06:03 22° NNE 18:08:50 83° ESE 18:13:10 10° SSW
Cosmos 1900 4.2 18:05:26 10° SSW 18:10:16 72° ESE 18:11:48 43° NE
X-37B 3.3 18:10:00 10° S 18:10:00 10° S 18:10:00 10° S
Okean O Rocket 1.5 18:07:57 10° SSE 18:12:24 87° E 18:16:54 10° NNW
Feng Yun 1-1 Rocket 4.3 18:07:50 10° SSE 18:13:39 60° ENE 18:19:25 10° N
Cosmos 2322 Rocket 2.6 18:08:28 10° NNW 18:13:50 39° NE 18:13:54 39° ENE
Meteor 2-15 4.3 18:08:17 10° S 18:14:19 69° E 18:20:23 10° NNE
Landsat 5 3.2 18:16:56 67° ENE 18:17:14 71° ESE 18:21:11 10° S
Cosmos 1666 Rocket 4.4 18:13:50 10° NNW 18:18:09 51° W 18:22:24 10° S
Cosmos 1980 Rocket 3.2 18:13:39 10° NW 18:19:02 46° WSW 18:24:23 10° S
Cosmos 1812 3.9 18:17:11 10° SSW 18:20:51 41° WNW 18:23:53 14° N
Cosmos 1328 Rocket 3.7 18:16:51 10° SSW 18:21:17 75° W 18:24:02 23° N
Cosmos 1470 Rocket 3.4 18:17:05 10° N 18:21:33 83° E 18:26:03 10° S
SJ-11-01 4.4 18:17:35 10° S 18:22:19 75° WSW 18:27:05 10° NNW
Spot 2 4.5 18:20:29 32° SE 18:22:45 58° ENE 18:27:46 10° N
SL-16 R/B 2.1 18:26:42 10° NNW 18:32:23 67° ENE 18:33:20 57° ESE
Cosmos 1570 Rocket 4.5 18:27:19 10° SW 18:32:29 58° WNW 18:35:27 25° N
SKYMED 2 4.2 18:30:16 23° N 18:32:45 56° WNW 18:36:59 10° SSW
Cosmos 2082 Rocket 3.2 18:29:36 10° SW 18:34:59 42° NW 18:38:46 19° N
Cosmos 1655 Rocket 4.0 18:29:21 10° N 18:35:48 88° WSW 18:42:10 10° S
Cosmos 2298 Rocket 3.9 18:30:27 10° NNW 18:35:49 90° WSW 18:38:49 27° SSE
ATLAS CENTAUR R/B 3.4 18:29:57 10° W 18:36:45 34° NW 18:37:45 30° N
USA 306 4.1 18:36:51 10° NW 18:39:34 32° NNW 18:39:34 32° NNW
DMSP B5D2-2 4.4 18:42:38 51° SSE 18:42:38 51° SSE 18:46:40 10° S
CZ-2C R/B 3.6 18:40:22 10° SSW 18:42:01 15° S 18:42:01 15° S
Cosmos 2333 Rocket 4.0 18:40:54 10° N 18:42:44 18° N 18:42:44 18° N
ARGOS 4.0 18:41:07 10° S 18:46:22 50° W 18:51:38 10° NNW
Cosmos 1818 3.9 18:42:11 10° NW 18:47:37 65° WSW 18:49:43 37° S
GEOS 3 Rocket 3.7 18:54:52 67° NNW 18:54:52 67° NNW 18:59:26 10° NW
Meteor 1-27 Rocket 3.9 18:57:15 10° S 19:01:42 60° SSW 19:01:42 60° SSW
USA 267 4.0 19:03:55 36° N 19:05:13 40° NNW 19:11:12 10° W
Cosmos 2219 Rocket 4.3 19:01:20 10° N 19:02:19 14° N 19:02:19 14° N
CZ-2C R/B 4.1 19:03:18 12° N 19:07:33 33° WNW 19:12:07 10° SW
CZ-4C R/B 4.3 19:12:17 10° NW 19:19:05 38° WSW 19:26:44 10° S
Lacrosse 5 rocket 3.8 19:19:06 10° WNW 19:20:27 19° WNW 19:20:27 19° WNW
Cosmos 2360 Rocket 3.9 19:31:48 10° NNW 19:33:59 24° NNW 19:33:59 24° NNW
ATLAS 2AS CENTAUR R/B 4.3 19:37:43 10° NNW 19:41:27 24° N 19:41:27 24° N
Cosmos 2322 Rocket 4.0 19:52:38 10° NW 19:55:46 28° WNW 19:55:46 28° WNW
SL-16 R/B 4.5 20:11:54 10° NW 20:15:18 20° W 20:15:18 20° W
